This is the latest recevied weather packets stored in our database for station/object OE-11140. If no packets are shown the sender has not sent any weather packets the latest 10 day(s).
| Time | Temp. | Humidity | Pressure | Rain* | Wind** | Luminosity | Snow |
|---|---|---|---|---|---|---|---|
| 1787903717 | 22.78° C | 61% | 1010.5 hPa | 0 mm | - | 404 W/m² | - |
| 1787902889 | 22.78° C | 62% | 1010.4 hPa | 0 mm | - | 378 W/m² | - |
| 1787902516 | 22.22° C | 64% | 1010.8 hPa | 0 mm | - | 252 W/m² | - |
| 1787901916 | 21.67° C | 65% | 1010.8 hPa | 0 mm | - | 232 W/m² | - |
| 1787901089 | 22.22° C | 65% | 1010.6 hPa | 0 mm | - | 384 W/m² | - |
| 1787900716 | 21.11° C | 68% | 1011 hPa | 0 mm | - | 278 W/m² | - |
| 1787900116 | 20.56° C | 70% | 1011.2 hPa | 0 mm | - | 139 W/m² | - |
| 1787899289 | 19.44° C | 71% | 1011.5 hPa | 0 mm | - | 119 W/m² | - |
| 1787898916 | 20° C | 71% | 1011.9 hPa | 0 mm | - | 146 W/m² | - |
| 1787898316 | 19.44° C | 72% | 1012 hPa | 0 mm | - | 119 W/m² | - |
| 1787897488 | 19.44° C | 71% | 1012.2 hPa | 0 mm | - | 86 W/m² | - |
| 1787897116 | 18.89° C | 73% | 1012.3 hPa | 0 mm | - | 86 W/m² | - |
| 1787896516 | 19.44° C | 70% | 1012.2 hPa | 0 mm | - | 80 W/m² | - |
| 1787895688 | 18.33° C | 76% | 1012.4 hPa | 0 mm | - | 66 W/m² | - |
| 1787895316 | 18.33° C | 76% | 1012.5 hPa | 0 mm | - | 53 W/m² | - |
| 1787894717 | 18.89° C | 74% | 1012.3 hPa | 0 mm | - | 40 W/m² | - |
| 1787893889 | 18.33° C | 74% | 1012.5 hPa | 0 mm | - | 20 W/m² | - |
| 1787893516 | 18.33° C | 75% | 1012.4 hPa | 0 mm | - | 7 W/m² | - |
| 1787892916 | 18.33° C | 75% | 1012.4 hPa | 0 mm | - | 7 W/m² | - |
| 1787892089 | 18.33° C | 75% | 1012.3 hPa | 0 mm | - | 0 W/m² | - |
| 1787891716 | 18.89° C | 74% | 1012.1 hPa | 0 mm | - | 0 W/m² | - |
| 1787891116 | 18.89° C | 74% | 1012.4 hPa | 0 mm | - | 0 W/m² | - |
| 1787890289 | 19.44° C | 72% | 1012.1 hPa | 0 mm | - | 0 W/m² | - |
| 1787889916 | 18.89° C | 74% | 1012.3 hPa | 0 mm | - | 0 W/m² | - |
| 1787889316 | 18.89° C | 75% | 1012.4 hPa | 0 mm | - | 0 W/m² | - |
* Rain latest hour (hover to see other rain measurements)
** Current wind speed in m/s (hover to see current wind gust speed)